[[{"header":{"parameterUnit":"m.s-1","parameterCategory":1,"la1":30.2991,"la2":30.254,"lo1":-89.0895,"lo2":-89.0444,"dy":0.0017,"dx":0.0017,"nx":28,"ny":28,"refTime":"2023-09-16T21:00:00:Z","depth":0,"parameterNumber":2,"parameterNumberName":"U-component_of_WINDS"},"data":[0,0,0,0,0,0,0,0,0,0,0,0,0,0,0,0,0,0,0,0,0,0,0,0,0,0,0,0,0,0,0,0,0,0,0,0,0,0,0,0,0,0,0,0,0,0,0,0,0,0,0,0,0,0,0,0,0,0,-2.0471,-2.0472,0,-2.0509,-2.051,-2.051,-2.043,-2.0427,-2.0425,-2.0422,-2.0461,-2.0464,-2.0468,0,0,0,0,0,0,0,0,0,0,0,0,0,-2.0328,-2.0331,-2.0471,-2.0472,-2.0472,-2.0509,-2.051,-2.051,-2.043,-2.0427,-2.0424,-2.0421,-2.046,-2.0464,-2.0468,0,0,0,0,0,0,0,0,0,0,0,0,0,-2.0381,-2.0332,-2.0471,-2.0437,-2.0434,-2.0509,-2.051,-2.051,-2.0431,-2.0427,-2.0423,-2.0419,-2.0458,-2.0463,-2.0469,-2.0579,0,0,-2.0484,-2.0487,0,0,0,0,0,0,0,0,-2.0378,-2.0386,-2.0441,-2.0439,-2.0436,-2.0461,-2.0473,-2.0533,-2.0432,-2.0432,-2.0422,-2.0417,-2.0464,-2.0468,-2.0484,-2.058,-2.0582,-2.0485,-2.0488,-2.049,-2.0492,0,0,0,0,0,0,0,-2.0374,-2.0384,-2.0486,-2.0442,-2.0439,-2.0419,-2.0422,-2.0484,-2.0469,-2.0432,-2.0426,-2.0432,-2.0462,-2.0479,-2.0484,-2.0583,-2.0485,-2.0489,-2.0492,-2.0494,-2.077,-2.0774,0,0,0,0,0,0,-2.0375,-2.0381,-2.0485,-2.0487,-2.0397,-2.0425,-2.0428,-2.0457,-2.0469,-2.0467,-2.0435,-2.0428,-2.0472,-2.0478,-2.0485,-2.0615,-2.049,-2.0495,-2.0498,-2.0766,-2.0771,-2.0776,0,0,0,0,0,0,-2.0372,-2.0385,-2.0483,-2.0433,-2.0444,-2.0431,-2.0464,-2.046,-2.0477,-2.0471,-2.0468,-2.0456,-2.047,-2.0478,-2.0556,-2.0615,-2.0497,-2.0502,-2.0761,-2.0768,-2.0774,-2.0876,0,0,0,0,0,0,-2.0369,-2.0385,-2.0427,-2.0434,-2.0447,-2.0554,-2.0468,-2.0463,-2.0486,-2.0477,-2.049,-2.0488,-2.0467,-2.0549,-2.0561,-2.062,-2.0506,-2.0756,-2.0764,-2.0772,-2.0867,-2.0885,-2.09,0,0,0,0,0,-2.0364,-2.0454,-2.0429,-2.0442,-2.0499,-2.0558,-2.0565,-2.0539,-2.0491,-2.0533,-2.0529,-2.0487,-2.0607,-2.0557,-2.0571,-2.0632,-2.0752,-2.0762,-2.0771,-2.086,-2.0881,-2.09,0,0,0,0,0,0,-2.0454,-2.0454,-2.0427,-2.0523,-2.0541,-2.0544,-2.0596,-2.0563,-2.0595,-2.0585,-2.0552,-2.0555,-2.0639,-2.0643,-2.0588,-2.0739,-2.0671,-2.0684,-2.0734,-2.0755,-2.0771,-2.0769,-2.051,0,0,0,0,0,-2.0485,-2.0533,-2.053,-2.0615,-2.0625,-2.0609,-2.0634,-2.0612,-2.063,-2.0637,-2.0638,-2.0657,-2.0698,-2.0726,-2.0764,-2.0866,-2.0868,-2.0915,-2.0932,-2.0945,-2.0957,-2.1011,-2.1033,-2.0807,-2.0807,-2.0807,0,0,-2.0549,-2.0556,-2.0588,-2.0633,-2.0644,-2.0694,-2.0616,-2.0672,-2.0709,-2.0645,-2.0719,-2.0721,-2.0739,-2.0829,-2.0869,-2.0835,-2.1019,-2.0958,-2.0968,-2.0973,-2.1023,-2.1045,-2.1064,-2.0813,-2.0812,-2.0811,0,0,-2.0693,-2.0702,-2.0774,-2.0787,-2.0805,-2.0794,-2.0811,-2.0819,-2.0818,-2.0891,-2.0844,-2.0887,-2.0959,-2.0973,-2.099,-2.1138,-2.1101,-2.1151,-2.1238,-2.1291,-2.1309,-2.1324,-2.1377,-2.1397,-2.1162,-2.1163,-2.1163,0,-2.0771,-2.0844,-2.0815,-2.0874,-2.0895,-2.0839,-2.0911,-2.0925,-2.0955,-2.097,-2.0931,-2.102,-2.1028,-2.1122,-2.1158,-2.1173,-2.1191,-2.115,-2.1309,-2.1324,-2.1338,-2.1388,-2.1408,-2.1169,-2.1168,-2.1167,-2.1167,0,-2.094,-2.0991,-2.1047,-2.1077,-2.1104,-2.1169,-2.1149,-2.118,-2.1155,-2.1148,-2.1223,-2.1231,-2.1269,-2.1289,-2.1266,-2.1379,-2.1357,-2.1314,-2.1245,-2.1366,-2.1413,-2.1432,-2.1177,-2.1175,-2.1173,-2.1172,0,0,-2.1142,-2.1154,-2.1175,-2.1188,-2.1204,-2.1243,-2.1305,-2.1342,-2.137,-2.1392,-2.1443,-2.1505,-2.1464,-2.1484,-2.1461,-2.1508,-2.1625,-2.1459,-2.1459,-2.149,-2.175,-2.1783,-2.1806,-2.1599,-2.1603,-2.1606,-2.1748,0,-2.1285,-2.1393,-2.1367,-2.1474,-2.1521,-2.1468,-2.1522,-2.1537,-2.1532,-2.157,-2.1563,-2.1608,-2.1551,-2.1563,-2.1606,-2.1602,-2.1677,-2.1591,-2.1647,-2.165,-2.1646,-2.183,-2.1865,-2.2,-2.1766,-2.177,-2.1772,0,-2.1465,-2.1495,-2.1606,-2.1614,-2.1632,-2.1682,-2.1713,-2.1751,-2.1767,-2.1759,-2.1781,-2.1749,-2.181,-2.1739,-2.1823,-2.1765,-2.1786,-2.1787,-2.1792,-2.1797,-2.1719,-2.1841,-2.2042,-2.2063,-2.18,-2.1798,-2.1796,0,-2.1603,-2.167,-2.1745,-2.1757,-2.1768,-2.1804,-2.181,-2.1821,-2.1845,-2.1873,-2.1888,-2.1922,-2.1941,-2.1968,-2.1946,-2.1897,-2.2033,-2.1961,-2.2028,-2.2029,-2.2061,-2.2059,-2.2269,-2.2073,-2.2073,-2.2072,-2.2072,0,-2.1765,-2.1835,-2.1807,-2.1853,-2.193,-2.19,-2.1976,-2.1976,-2.1987,-2.2032,-2.1987,-2.203,-2.1998,-2.2039,-2.2022,-2.2093,-2.2102,-2.2097,-2.2092,-2.2102,-2.2103,-2.2116,-2.2107,-2.2078,-2.2077,-2.2076,-2.2075,0,-2.1932,-2.1915,-2.1994,-2.1997,-2.2,-2.2057,-2.2059,-2.2102,-2.2092,-2.215,-2.2161,-2.2147,-2.2192,-2.2172,-2.2219,-2.2208,-2.23,-2.2282,-2.2295,-2.2291,-2.236,-2.2354,-2.2586,-2.2615,-2.24,-2.2402,-2.2404,0,-2.2037,-2.209,-2.2099,-2.2126,-2.2135,-2.2179,-2.2203,-2.2175,-2.2202,-2.2223,-2.2263,-2.2304,-2.2335,-2.2409,-2.2403,-2.2438,-2.2421,-2.25,-2.2426,-2.2434,-2.2423,-2.242,-2.2425,-2.2515,-2.2518,-2.252,-2.2522,0,-2.2225,-2.2214,-2.2251,-2.2285,-2.2315,-2.234,-2.2362,-2.2386,-2.2358,-2.2391,-2.2436,-2.2461,-2.2508,-2.255,-2.2581,-2.2586,-2.255,-2.2545,-2.2562,-2.2573,-2.2579,-2.2577,-2.2336,-2.254,-2.2538,-2.2537,-2.2536,-2.2535,-2.2364,-2.2409,-2.2422,-2.2464,-2.2477,-2.2498,-2.2539,-2.2534,-2.2572,-2.2609,-2.2589,-2.2643,-2.2656,-2.2694,-2.2704,-2.2744,-2.2713,-2.2739,-2.2745,-2.2752,-2.2762,-2.2572,-2.275,-2.2749,-2.2749,-2.2748,-2.2748,0,-2.255,-2.2556,-2.2595,-2.2627,-2.266,-2.2623,-2.2644,-2.2674,-2.2721,-2.2737,-2.2769,-2.2821,-2.286,-2.2856,-2.2892,-2.2926,-2.291,-2.2936,-2.2934,-2.2935,-2.2787,-2.2769,-2.2948,-2.2948,-2.2948,-2.2948,-2.2948,-2.2948,-2.2651,-2.2724,-2.2715,-2.2794,-2.2799,-2.2851,-2.2867,-2.2885,-2.2898,-2.2958,-2.2991,-2.2988,-2.2996,-2.3032,-2.3066,-2.3064,-2.3079,-2.3112,-2.3104,-2.2966,-2.2946,-2.2927,-2.2909,-2.3116,-2.3116,-2.3249,-2.325,-2.3251]},{"header":{"parameterUnit":"m.s-1","parameterCategory":1,"la1":30.2991,"la2":30.254,"lo1":-89.0895,"lo2":-89.0444,"dy":0.0017,"dx":0.0017,"nx":28,"ny":28,"refTime":"2023-09-16T21:00:00:Z","depth":0,"parameterNumber":3,"parameterNumberName":"V-component_of_WINDS"},"data":[0,0,0,0,0,0,0,0,0,0,0,0,0,0,0,0,0,0,0,0,0,0,0,0,0,0,0,0,0,0,0,0,0,0,0,0,0,0,0,0,0,0,0,0,0,0,0,0,0,0,0,0,0,0,0,0,0,0,-3.8351,-3.8353,0,-3.8487,-3.8488,-3.849,-3.8469,-3.8467,-3.8465,-3.8463,-3.8598,-3.8603,-3.8609,0,0,0,0,0,0,0,0,0,0,0,0,0,-3.8072,-3.8077,-3.8351,-3.8353,-3.8355,-3.8486,-3.8488,-3.849,-3.847,-3.8467,-3.8464,-3.8462,-3.8596,-3.8603,-3.8609,0,0,0,0,0,0,0,0,0,0,0,0,0,-3.8199,-3.8079,-3.8351,-3.8361,-3.8363,-3.8486,-3.8488,-3.8491,-3.847,-3.8467,-3.8464,-3.846,-3.8594,-3.8602,-3.861,-3.8731,0,0,-3.8636,-3.864,0,0,0,0,0,0,0,0,-3.8192,-3.8209,-3.8357,-3.836,-3.8363,-3.8458,-3.8439,-3.8571,-3.8471,-3.8429,-3.8463,-3.8459,-3.8554,-3.8565,-3.8598,-3.8738,-3.8744,-3.8637,-3.8642,-3.8646,-3.8649,0,0,0,0,0,0,0,-3.8183,-3.8203,-3.8405,-3.836,-3.8363,-3.8357,-3.8371,-3.8464,-3.8509,-3.8433,-3.8432,-3.8448,-3.8554,-3.859,-3.8601,-3.8746,-3.8637,-3.8645,-3.865,-3.8653,-3.8991,-3.8995,0,0,0,0,0,0,-3.8172,-3.8196,-3.84,-3.8409,-3.8267,-3.8365,-3.8381,-3.8431,-3.8508,-3.8516,-3.8451,-3.8447,-3.8577,-3.8591,-3.8606,-3.8753,-3.8646,-3.8654,-3.8659,-3.8988,-3.8992,-3.8996,0,0,0,0,0,0,-3.8166,-3.819,-3.8395,-3.8302,-3.8328,-3.8373,-3.8429,-3.8435,-3.847,-3.8522,-3.8529,-3.8479,-3.8575,-3.8594,-3.8701,-3.8757,-3.8658,-3.8666,-3.8983,-3.8989,-3.8994,-3.9047,0,0,0,0,0,0,-3.8158,-3.8188,-3.8236,-3.8303,-3.8333,-3.8489,-3.8433,-3.844,-3.8486,-3.8482,-3.855,-3.8558,-3.8573,-3.8688,-3.8709,-3.8767,-3.8672,-3.8978,-3.8986,-3.8992,-3.9041,-3.9054,-3.9066,0,0,0,0,0,-3.8148,-3.8244,-3.8238,-3.8263,-3.8393,-3.8492,-3.8509,-3.8526,-3.849,-3.8538,-3.8571,-3.8556,-3.8748,-3.8699,-3.8723,-3.8784,-3.8975,-3.8984,-3.8992,-3.9035,-3.9052,-3.9066,0,0,0,0,0,0,-3.8181,-3.8253,-3.8247,-3.8369,-3.8425,-3.8488,-3.8549,-3.8542,-3.8608,-3.8602,-3.8618,-3.8634,-3.8742,-3.8774,-3.8719,-3.8905,-3.8856,-3.887,-3.8881,-3.8897,-3.8909,-3.8899,-3.868,0,0,0,0,0,-3.8202,-3.8278,-3.8337,-3.8438,-3.8467,-3.8503,-3.8547,-3.8555,-3.8613,-3.8636,-3.8677,-3.8733,-3.8805,-3.8853,-3.8923,-3.9045,-3.906,-3.9099,-3.9112,-3.9122,-3.9133,-3.92,-3.9218,-3.9025,-3.9025,-3.9025,0,0,-3.8247,-3.8296,-3.8343,-3.8446,-3.849,-3.8567,-3.8523,-3.8606,-3.8663,-3.8648,-3.8752,-3.8784,-3.8847,-3.8963,-3.9016,-3.8992,-3.919,-3.9133,-3.914,-3.9147,-3.9211,-3.9229,-3.9246,-3.9031,-3.903,-3.9029,0,0,-3.8368,-3.8413,-3.8502,-3.8548,-3.8616,-3.864,-3.8661,-3.8727,-3.8748,-3.8852,-3.8843,-3.891,-3.9036,-3.9081,-3.9121,-3.926,-3.9248,-3.9282,-3.9347,-3.9412,-3.9427,-3.9441,-3.949,-3.9508,-3.9293,-3.9293,-3.9293,0,-3.8414,-3.8531,-3.8549,-3.8633,-3.8679,-3.8671,-3.8761,-3.8804,-3.8891,-3.8922,-3.8895,-3.9052,-3.9094,-3.922,-3.9254,-3.9286,-3.931,-3.9274,-3.9424,-3.9438,-3.9451,-3.9498,-3.9516,-3.9297,-3.9296,-3.9296,-3.9296,0,-3.8585,-3.8666,-3.873,-3.8816,-3.8868,-3.8955,-3.8985,-3.9036,-3.9039,-3.9066,-3.9172,-3.9223,-3.9302,-3.9333,-3.9337,-3.946,-3.9443,-3.942,-3.9371,-3.9472,-3.9517,-3.9535,-3.9302,-3.9301,-3.93,-3.9299,0,0,-3.873,-3.8825,-3.8848,-3.8887,-3.8961,-3.9024,-3.911,-3.9189,-3.9233,-3.9293,-3.9365,-3.9471,-3.9451,-3.9495,-3.9504,-3.9562,-3.9668,-3.9531,-3.9533,-3.9555,-3.9806,-3.9823,-3.9844,-3.9661,-3.9665,-3.9668,-3.9801,0,-3.8857,-3.9011,-3.903,-3.9166,-3.9241,-3.9234,-3.9309,-3.9363,-3.939,-3.9456,-3.9485,-3.956,-3.9527,-3.9554,-3.9611,-3.9643,-3.9719,-3.9634,-3.9728,-3.9731,-3.9712,-3.9867,-3.9885,-4.0008,-3.9818,-3.9821,-3.9824,0,-3.9027,-3.9094,-3.9238,-3.9303,-3.9335,-3.9402,-3.9476,-3.954,-3.96,-3.9616,-3.9667,-3.9668,-3.9756,-3.9704,-3.9825,-3.9767,-3.9806,-3.9828,-3.9833,-3.9842,-3.9783,-3.988,-4.0048,-4.0066,-3.9851,-3.9849,-3.9847,0,-3.9118,-3.9243,-3.9346,-3.9379,-3.9458,-3.9505,-3.954,-3.9597,-3.9643,-3.9708,-3.9738,-3.9812,-3.9852,-3.9908,-3.993,-3.989,-4.005,-3.9999,-4.0064,-4.0064,-4.0098,-4.0095,-4.0274,-4.0124,-4.0123,-4.0123,-4.0123,0,-3.9258,-3.9347,-3.9388,-3.9451,-3.9549,-3.9569,-3.9666,-3.9698,-3.9749,-3.9818,-3.9816,-3.988,-3.9905,-3.9972,-3.9989,-4.0087,-4.0105,-4.0119,-4.0123,-4.0119,-4.0118,-4.0145,-4.0137,-4.0128,-4.0127,-4.0126,-4.0125,0,-3.9376,-3.9407,-3.9519,-3.9584,-3.9603,-3.9672,-3.9728,-3.9788,-3.9815,-3.9901,-3.9923,-3.9964,-4.0043,-4.007,-4.0166,-4.0178,-4.0291,-4.0287,-4.0271,-4.0272,-4.0336,-4.0329,-4.0538,-4.0566,-4.0398,-4.0399,-4.0401,0,-3.9463,-3.9532,-3.9605,-3.9651,-3.9688,-3.9763,-3.9811,-3.9833,-3.9883,-3.9957,-4.0008,-4.0088,-4.0152,-4.028,-4.0317,-4.0391,-4.0389,-4.0457,-4.0399,-4.0394,-4.0389,-4.0385,-4.0392,-4.0467,-4.0469,-4.047,-4.0472,0,-3.9615,-3.9628,-3.9698,-3.9774,-3.9831,-3.9892,-3.995,-3.9988,-4.0018,-4.0074,-4.0157,-4.0207,-4.0306,-4.0384,-4.046,-4.0494,-4.0488,-4.049,-4.0508,-4.0505,-4.0493,-4.0501,-4.03,-4.0484,-4.0483,-4.0482,-4.0482,-4.0481,-3.972,-3.9781,-3.9842,-3.992,-3.9967,-4.0021,-4.0081,-4.0116,-4.0185,-4.0269,-4.0277,-4.0366,-4.0424,-4.0525,-4.0563,-4.0631,-4.0612,-4.0639,-4.0646,-4.0653,-4.0658,-4.0483,-4.0645,-4.0645,-4.0644,-4.0644,-4.0644,0,-3.9872,-3.9911,-3.9983,-4.0065,-4.0127,-4.0117,-4.0181,-4.0233,-4.0311,-4.0367,-4.0431,-4.0525,-4.0602,-4.0646,-4.0722,-4.0769,-4.0768,-4.0788,-4.0784,-4.0792,-4.067,-4.0646,-4.0787,-4.0787,-4.0787,-4.0787,-4.0787,-4.0787,-3.9958,-4.0059,-4.0079,-4.0203,-4.0242,-4.033,-4.0367,-4.0417,-4.0462,-4.0568,-4.0632,-4.066,-4.0711,-4.0791,-4.0861,-4.0872,-4.09,-4.0922,-4.0931,-4.0816,-4.0801,-4.0787,-4.0764,-4.0928,-4.0928,-4.1047,-4.1048,-4.1049]}]]